Weather in Etyrken

Russia / Khabarovsk Krai     51°31′10″N   131°31′45″E
temp.,
°C
wind,
m/s
gust,
m/s
humid.,
%
clouds,
%
prec.,
mm/h
press.,
hPa
HPBL,
m
27 february, sat
sat2701:00−26se11930 0.0 103620
04:00−23ese128733 0.0 103520
07:00−22ese2288100 0.0 103326
10:00−18ese2389100 0.0 1030132
13:00−14ese3685100 0.1 1024336
16:00−13ese5980100 0.1 1016491
19:00−13se41391100 0.2 1014727
22:00−14se3895100 2.3 1013410
28 february, sun
sun2801:00−14sse2497100 1.6 1012162
04:00−16sw2398100 2.1 101469
07:00−19w41099100 0.5 1018513
10:00−22w411100100 0.6 1021499
13:00−21w4895100 0.1 1024711
16:00−20w6994100 0.3 1024958
19:00−23w51098100 0.3 1028726
22:00−24wnw41099100 0.5 1030509
1 march, mon
mon101:00−27w24100100 0.2 103288
04:00−31w2210098 0.3 103419
07:00−34w12100100 0.0 103619
10:00−30w239683 0.0 1036218
13:00−25w397912 0.0 1034794
16:00−24w599123 0.0 1033991
19:00−26w39100100 0.1 1034340
22:00−28w27100100 0.3 1035191
2 march, tue
tue201:00−31wsw12100100 0.1 103519
04:00−33wsw11100100 0.1 103619
07:00−33s11100100 0.0 103619
10:00−27s119797 0.1 103581
13:00−22w248162 0.0 1033858
16:00−20w237981 0.0 1030834
19:00−25ese119489 0.0 103020
22:00−24se229793 0.0 103129
3 march, wed
wed301:00−24ese2298100 0.1 102944
04:00−23ese2298100 0.4 102687
07:00−24ese2398100 0.3 1023118
10:00−22se3596100 0.4 1020213
13:00−16sse41088100 0.3 1016632
16:00−14sse41087100 0.4 1012780
19:00−16se2596100 0.2 1011188
22:00−16sse2597100 1.1 1011241